AWC955 SUMU-SGAS

Flight info

Callsign AWC955
Flight time N/A
Altitude 35000
Route VUKAS UM402 KONTO KONTO
Aircraft A320/M-SDE3FGHIRWY/LB1

Departure

Time 2026-04-29 15:52
Airport Carrasco General Cesáreo L. Berisso International Airport (SUMU)

Arrival

Time N/A
Airport Silvio Pettirossi International Airport (SGAS)
Time Latitude Longitude Altitude Speed Heading
2026-04-29 15:26 -34.83667 -56.01874 84 ft 0 kts 143°
2026-04-29 15:42 -34.83651 -56.01888 84 ft 4 kts 146°
2026-04-29 15:42 -34.83628 -56.01905 85 ft 4 kts 153°
2026-04-29 15:42 -34.83603 -56.01917 86 ft 4 kts 176°
2026-04-29 15:42 -34.83584 -56.01912 86 ft 1 kts 233°
2026-04-29 15:44 -34.83585 -56.01915 86 ft 1 kts 233°
2026-04-29 15:45 -34.83593 -56.01928 84 ft 3 kts 233°
2026-04-29 15:45 -34.83608 -56.01953 84 ft 5 kts 233°
2026-04-29 15:45 -34.83631 -56.01990 83 ft 6 kts 233°
2026-04-29 15:45 -34.83662 -56.02040 84 ft 8 kts 233°
2026-04-29 15:46 -34.83699 -56.02102 82 ft 10 kts 233°
2026-04-29 15:46 -34.83745 -56.02177 84 ft 12 kts 233°
2026-04-29 15:46 -34.83815 -56.02238 85 ft 14 kts 191°
2026-04-29 15:46 -34.83912 -56.02245 84 ft 15 kts 187°
2026-04-29 15:47 -34.83946 -56.02347 82 ft 15 kts 271°
2026-04-29 15:47 -34.83946 -56.02482 82 ft 17 kts 270°
2026-04-29 15:47 -34.83948 -56.02630 82 ft 18 kts 261°
2026-04-29 15:47 -34.83992 -56.02752 84 ft 9 kts 236°
2026-04-29 15:48 -34.84012 -56.02826 84 ft 10 kts 265°
2026-04-29 15:48 -34.84011 -56.02906 82 ft 7 kts 271°
2026-04-29 15:48 -34.84010 -56.02922 82 ft 0 kts 271°
2026-04-29 15:48 -34.84010 -56.02929 82 ft 2 kts 271°
2026-04-29 15:49 -34.84010 -56.02954 86 ft 4 kts 270°
2026-04-29 15:49 -34.84010 -56.02998 84 ft 6 kts 270°
2026-04-29 15:49 -34.84018 -56.03059 84 ft 8 kts 235°
2026-04-29 15:49 -34.84077 -56.03073 84 ft 10 kts 176°
2026-04-29 15:50 -34.84140 -56.03036 84 ft 11 kts 144°
2026-04-29 15:50 -34.84181 -56.03067 85 ft 10 kts 297°
2026-04-29 15:50 -34.84158 -56.03074 85 ft 0 kts 358°
2026-04-29 15:51 -34.84157 -56.03074 85 ft 1 kts 358°
2026-04-29 15:51 -34.83957 -56.03078 84 ft 70 kts 360°
2026-04-29 15:51 -34.83215 -56.03084 91 ft 139 kts 360°
2026-04-29 15:52 -34.82261 -56.03068 722 ft 137 kts 353°
2026-04-29 15:52 -34.81303 -56.03098 1469 ft 136 kts 346°
2026-04-29 15:52 -34.80359 -56.03172 2159 ft 142 kts 340°
2026-04-29 15:52 -34.79327 -56.03358 2607 ft 158 kts 339°
2026-04-29 15:53 -34.78138 -56.03589 2779 ft 183 kts 340°
2026-04-29 15:53 -34.76843 -56.03825 3233 ft 192 kts 341°
2026-04-29 15:53 -34.75514 -56.04053 3791 ft 195 kts 341°
2026-04-29 15:53 -34.74099 -56.04303 4043 ft 219 kts 342°
2026-04-29 15:54 -34.72501 -56.04589 4402 ft 243 kts 343°
2026-04-29 15:54 -34.70789 -56.04879 5085 ft 252 kts 343°
2026-04-29 15:54 -34.69033 -56.05165 5902 ft 257 kts 344°
2026-04-29 15:54 -34.67247 -56.05455 6702 ft 261 kts 344°
2026-04-29 15:55 -34.65436 -56.05753 7456 ft 264 kts 344°
2026-04-29 15:55 -34.63601 -56.06058 8237 ft 268 kts 345°
2026-04-29 15:55 -34.61743 -56.06366 9014 ft 271 kts 345°
2026-04-29 15:55 -34.59858 -56.06679 9750 ft 276 kts 346°
2026-04-29 15:56 -34.57929 -56.07001 10266 ft 288 kts 346°
2026-04-29 15:56 -34.55870 -56.07352 10436 ft 311 kts 346°
2026-04-29 15:56 -34.53688 -56.07724 10672 ft 329 kts 346°
2026-04-29 15:56 -34.51391 -56.08106 11206 ft 336 kts 346°
2026-04-29 15:57 -34.49052 -56.08488 11810 ft 341 kts 346°
2026-04-29 15:57 -34.46683 -56.08875 12413 ft 346 kts 346°
2026-04-29 15:57 -34.44284 -56.09269 13000 ft 351 kts 346°
2026-04-29 15:57 -34.41843 -56.09673 13606 ft 356 kts 345°
2026-04-29 15:58 -34.39374 -56.10082 14142 ft 361 kts 345°
2026-04-29 15:58 -34.36878 -56.10497 14710 ft 363 kts 345°
2026-04-29 15:58 -34.34366 -56.10917 15300 ft 365 kts 346°
2026-04-29 15:58 -34.31840 -56.11340 15894 ft 367 kts 346°
2026-04-29 15:59 -34.29307 -56.11771 16490 ft 368 kts 346°
2026-04-29 15:59 -34.26766 -56.12208 17098 ft 370 kts 346°
2026-04-29 15:59 -34.24214 -56.12649 17731 ft 371 kts 346°
2026-04-29 15:59 -34.21683 -56.13083 18340 ft 373 kts 346°
2026-04-29 16:00 -34.19109 -56.13522 18887 ft 374 kts 346°
2026-04-29 16:00 -34.16523 -56.13962 19440 ft 376 kts 345°
2026-04-29 16:00 -34.13922 -56.14404 19976 ft 379 kts 346°
2026-04-29 16:00 -34.11303 -56.14849 20537 ft 381 kts 345°
2026-04-29 16:01 -34.08673 -56.15299 21072 ft 382 kts 345°
2026-04-29 16:01 -34.06032 -56.15754 21579 ft 385 kts 344°
2026-04-29 16:01 -34.03376 -56.16208 22083 ft 387 kts 344°
2026-04-29 16:01 -34.00700 -56.16662 22574 ft 389 kts 344°
2026-04-29 16:02 -33.98011 -56.17117 23042 ft 391 kts 344°
2026-04-29 16:02 -33.95315 -56.17572 23515 ft 393 kts 343°
2026-04-29 16:02 -33.92595 -56.18034 23911 ft 395 kts 344°
2026-04-29 16:02 -33.89865 -56.18499 24298 ft 397 kts 344°
2026-04-29 16:03 -33.87127 -56.18963 24675 ft 399 kts 344°
2026-04-29 16:03 -33.84374 -56.19425 25051 ft 400 kts 344°
2026-04-29 16:03 -33.81640 -56.19882 25411 ft 402 kts 344°
2026-04-29 16:03 -33.78861 -56.20346 25756 ft 404 kts 344°
2026-04-29 16:04 -33.76067 -56.20817 26096 ft 406 kts 344°
2026-04-29 16:04 -33.73270 -56.21292 26440 ft 408 kts 345°
2026-04-29 16:04 -33.70449 -56.21768 26793 ft 410 kts 345°
2026-04-29 16:04 -33.67619 -56.22244 27126 ft 412 kts 345°
2026-04-29 16:05 -33.64770 -56.22724 27463 ft 414 kts 345°
2026-04-29 16:05 -33.61911 -56.23207 27807 ft 416 kts 345°
2026-04-29 16:05 -33.59036 -56.23689 28139 ft 418 kts 345°
2026-04-29 16:05 -33.56146 -56.24173 28450 ft 420 kts 345°
2026-04-29 16:06 -33.53243 -56.24661 28784 ft 422 kts 345°
2026-04-29 16:06 -33.50342 -56.25147 29244 ft 420 kts 345°
2026-04-29 16:06 -33.47446 -56.25631 29721 ft 419 kts 345°
2026-04-29 16:06 -33.44599 -56.26104 30147 ft 418 kts 345°
2026-04-29 16:07 -33.41682 -56.26586 30532 ft 417 kts 345°
2026-04-29 16:07 -33.39781 -56.26902 30782 ft 417 kts 345°
2026-04-29 16:07 -33.35979 -56.27535 31289 ft 416 kts 345°
2026-04-29 16:07 -33.33114 -56.28016 31665 ft 415 kts 345°
2026-04-29 16:08 -33.30255 -56.28498 32061 ft 415 kts 345°
2026-04-29 16:08 -33.27398 -56.28980 32448 ft 414 kts 345°
2026-04-29 16:08 -33.24553 -56.29456 32844 ft 413 kts 344°
2026-04-29 16:08 -33.21708 -56.29929 33230 ft 412 kts 344°
2026-04-29 16:09 -33.18862 -56.30399 33628 ft 412 kts 344°
2026-04-29 16:09 -33.16026 -56.30870 34013 ft 411 kts 344°
2026-04-29 16:09 -33.13198 -56.31340 34332 ft 410 kts 344°
2026-04-29 16:09 -33.10371 -56.31809 34600 ft 410 kts 344°
2026-04-29 16:10 -33.07543 -56.32276 34862 ft 411 kts 343°
2026-04-29 16:10 -33.04704 -56.32746 34968 ft 413 kts 343°
2026-04-29 16:10 -33.01840 -56.33225 34997 ft 419 kts 343°
2026-04-29 16:11 -32.96008 -56.34198 34994 ft 425 kts 343°
2026-04-29 16:11 -32.90175 -56.35164 35004 ft 427 kts 344°
2026-04-29 16:12 -32.84289 -56.36128 35002 ft 427 kts 343°
2026-04-29 16:12 -32.78400 -56.37097 35010 ft 428 kts 343°
2026-04-29 16:13 -32.72503 -56.38070 35002 ft 428 kts 343°
2026-04-29 16:13 -32.66603 -56.39042 35002 ft 428 kts 343°
2026-04-29 16:14 -32.60697 -56.40009 34999 ft 429 kts 343°
2026-04-29 16:14 -32.54780 -56.40975 35002 ft 429 kts 343°
2026-04-29 16:15 -32.48868 -56.41948 34998 ft 429 kts 343°
2026-04-29 16:15 -32.42990 -56.42919 35001 ft 430 kts 343°
2026-04-29 16:16 -32.37059 -56.43886 34999 ft 430 kts 343°
2026-04-29 16:16 -32.31130 -56.44845 35010 ft 430 kts 343°
2026-04-29 16:17 -32.25193 -56.45812 35020 ft 431 kts 343°
2026-04-29 16:17 -32.19256 -56.46783 35024 ft 431 kts 343°
2026-04-29 16:18 -32.13318 -56.47756 35025 ft 431 kts 343°
2026-04-29 16:18 -32.07365 -56.48721 35026 ft 432 kts 343°
2026-04-29 16:19 -32.01413 -56.49677 35021 ft 432 kts 343°
2026-04-29 16:19 -31.95465 -56.50655 35025 ft 432 kts 343°
2026-04-29 16:20 -31.89549 -56.51637 35029 ft 432 kts 343°
2026-04-29 16:20 -31.83585 -56.52612 35036 ft 433 kts 343°
2026-04-29 16:21 -31.77616 -56.53572 35032 ft 433 kts 343°
2026-04-29 16:21 -31.71639 -56.54527 35040 ft 434 kts 343°
2026-04-29 16:22 -31.66678 -56.55324 35039 ft 433 kts 343°
2026-04-29 16:22 -31.60699 -56.56287 35040 ft 433 kts 343°
2026-04-29 16:23 -31.54712 -56.57243 35040 ft 434 kts 343°
2026-04-29 16:23 -31.48733 -56.58192 35043 ft 434 kts 342°
2026-04-29 16:24 -31.42762 -56.59153 35045 ft 433 kts 342°
2026-04-29 16:24 -31.36792 -56.60116 35049 ft 433 kts 342°
2026-04-29 16:25 -31.30811 -56.61067 35049 ft 433 kts 342°
2026-04-29 16:25 -31.24842 -56.62005 35056 ft 433 kts 342°
2026-04-29 16:26 -31.18910 -56.62952 35045 ft 432 kts 342°
2026-04-29 16:26 -31.12957 -56.63911 35049 ft 432 kts 342°
2026-04-29 16:27 -31.06997 -56.64855 35040 ft 432 kts 342°
2026-04-29 16:27 -31.01037 -56.65799 35044 ft 432 kts 342°
2026-04-29 16:28 -30.95077 -56.66737 35039 ft 432 kts 342°
2026-04-29 16:28 -30.89116 -56.67681 35050 ft 432 kts 342°
2026-04-29 16:29 -30.83164 -56.68632 35046 ft 432 kts 342°
2026-04-29 16:29 -30.77204 -56.69570 35055 ft 432 kts 342°
2026-04-29 16:30 -30.71280 -56.70501 35054 ft 432 kts 342°
2026-04-29 16:30 -30.65322 -56.71443 35056 ft 432 kts 342°
2026-04-29 16:31 -30.59370 -56.72382 35061 ft 431 kts 341°
2026-04-29 16:31 -30.53425 -56.73316 35055 ft 431 kts 341°
2026-04-29 16:32 -30.47480 -56.74242 35045 ft 431 kts 341°
2026-04-29 16:32 -30.41544 -56.75173 35057 ft 430 kts 341°
2026-04-29 16:33 -30.32654 -56.76564 35047 ft 430 kts 341°
2026-04-29 16:33 -30.26734 -56.77485 35050 ft 429 kts 341°
2026-04-29 16:34 -30.20825 -56.78412 35047 ft 428 kts 341°
2026-04-29 16:34 -30.14921 -56.79333 35048 ft 428 kts 341°
2026-04-29 16:35 -30.09058 -56.80246 35046 ft 427 kts 341°
2026-04-29 16:35 -30.03183 -56.81192 35048 ft 426 kts 340°
2026-04-29 16:36 -29.97320 -56.82151 35044 ft 426 kts 340°
2026-04-29 16:36 -29.91457 -56.83090 35047 ft 425 kts 340°
2026-04-29 16:37 -29.85601 -56.84020 35048 ft 424 kts 340°
2026-04-29 16:37 -29.80741 -56.84792 35057 ft 424 kts 340°
2026-04-29 16:38 -29.73923 -56.85891 35052 ft 423 kts 340°
2026-04-29 16:38 -29.68101 -56.86825 35052 ft 423 kts 340°
2026-04-29 16:39 -29.62271 -56.87754 35051 ft 422 kts 340°
2026-04-29 16:39 -29.56453 -56.88690 35047 ft 422 kts 340°
2026-04-29 16:40 -29.50630 -56.89617 35044 ft 422 kts 340°
2026-04-29 16:40 -29.44814 -56.90513 35040 ft 422 kts 340°
2026-04-29 16:41 -29.39034 -56.91398 35033 ft 421 kts 340°
2026-04-29 16:41 -29.33230 -56.92284 35032 ft 421 kts 340°
2026-04-29 16:42 -29.27426 -56.93176 35026 ft 421 kts 340°
2026-04-29 16:42 -29.21627 -56.94073 35030 ft 420 kts 340°
2026-04-29 16:43 -29.18729 -56.94519 34894 ft 421 kts 341°
2026-04-29 16:43 -29.15804 -56.94970 35028 ft 425 kts 343°
2026-04-29 16:43 -29.09834 -56.95894 35024 ft 441 kts 343°
2026-04-29 16:44 -29.03689 -56.96827 35022 ft 447 kts 343°
2026-04-29 16:44 -28.97510 -56.97749 35021 ft 448 kts 343°
2026-04-29 16:45 -28.91322 -56.98681 35023 ft 448 kts 343°
2026-04-29 16:45 -28.85141 -56.99622 35016 ft 448 kts 343°
2026-04-29 16:46 -28.78993 -57.00551 35020 ft 449 kts 343°
2026-04-29 16:46 -28.72798 -57.01481 35015 ft 449 kts 343°
2026-04-29 16:47 -28.66600 -57.02419 35013 ft 449 kts 344°
2026-04-29 16:47 -28.60406 -57.03343 35010 ft 449 kts 344°
2026-04-29 16:48 -28.54213 -57.04275 35008 ft 449 kts 344°
2026-04-29 16:48 -28.48019 -57.05204 35010 ft 449 kts 344°
2026-04-29 16:49 -28.41823 -57.06139 35006 ft 449 kts 344°
2026-04-29 16:49 -28.35673 -57.07060 35007 ft 449 kts 344°
2026-04-29 16:50 -28.29484 -57.07986 35006 ft 448 kts 344°
2026-04-29 16:50 -28.23303 -57.08905 35007 ft 448 kts 345°
2026-04-29 16:51 -28.17114 -57.09810 35009 ft 448 kts 345°
2026-04-29 16:51 -28.10949 -57.10719 35009 ft 447 kts 345°
2026-04-29 16:52 -28.04777 -57.11633 35011 ft 447 kts 345°
2026-04-29 16:52 -27.98616 -57.12549 35012 ft 446 kts 345°
2026-04-29 16:53 -27.92470 -57.13466 35009 ft 446 kts 345°
2026-04-29 16:53 -27.86319 -57.14387 35006 ft 445 kts 345°
2026-04-29 16:54 -27.80223 -57.15291 35004 ft 445 kts 345°
2026-04-29 16:54 -27.74082 -57.16195 35001 ft 445 kts 345°
2026-04-29 16:55 -27.67944 -57.17100 35004 ft 445 kts 345°
2026-04-29 16:55 -27.61811 -57.18009 35002 ft 444 kts 345°
2026-04-29 16:56 -27.55681 -57.18920 35004 ft 444 kts 345°
2026-04-29 16:56 -27.49550 -57.19818 34999 ft 444 kts 345°
2026-04-29 16:57 -27.43424 -57.20708 34999 ft 444 kts 346°
2026-04-29 16:57 -27.37281 -57.21589 34996 ft 444 kts 346°
2026-04-29 16:58 -27.31151 -57.22477 34997 ft 444 kts 346°
2026-04-29 16:58 -27.25060 -57.23360 34999 ft 444 kts 346°
2026-04-29 16:59 -27.18930 -57.24237 34999 ft 444 kts 346°
2026-04-29 16:59 -27.12803 -57.25115 35003 ft 444 kts 346°
2026-04-29 17:00 -27.06680 -57.25991 35005 ft 444 kts 346°
2026-04-29 17:00 -27.00553 -57.26864 34994 ft 442 kts 346°
2026-04-29 17:01 -26.94534 -57.27714 35001 ft 433 kts 346°
2026-04-29 17:01 -26.88570 -57.28570 34992 ft 431 kts 346°
2026-04-29 17:02 -26.82630 -57.29420 34993 ft 430 kts 346°
2026-04-29 17:02 -26.76757 -57.30506 35000 ft 422 kts 336°
2026-04-29 17:03 -26.71569 -57.33259 35006 ft 410 kts 323°
2026-04-29 17:03 -26.66710 -57.36534 34998 ft 410 kts 323°
2026-04-29 17:04 -26.61809 -57.39812 35004 ft 411 kts 323°
2026-04-29 17:04 -26.56898 -57.43085 35004 ft 411 kts 324°
2026-04-29 17:05 -26.51983 -57.46357 35005 ft 411 kts 324°
2026-04-29 17:05 -26.47085 -57.49644 35004 ft 411 kts 323°
2026-04-29 17:06 -26.42080 -57.52751 34999 ft 418 kts 335°
2026-04-29 17:06 -26.39236 -57.53550 34999 ft 427 kts 347°
2026-04-29 17:06 -26.36230 -57.53665 34998 ft 434 kts 354°
2026-04-29 17:07 -26.31215 -57.53594 34991 ft 434 kts 354°
2026-04-29 17:07 -26.24144 -57.53486 34994 ft 435 kts 354°
2026-04-29 17:08 -26.18138 -57.53418 34995 ft 435 kts 354°
2026-04-29 17:08 -26.12085 -57.53364 34996 ft 435 kts 354°
2026-04-29 17:09 -26.06065 -57.53543 35001 ft 430 kts 348°
2026-04-29 17:09 -26.00116 -57.54170 34998 ft 430 kts 349°
2026-04-29 17:10 -25.94159 -57.54792 34997 ft 430 kts 349°
2026-04-29 17:10 -25.88208 -57.55412 34997 ft 430 kts 349°
2026-04-29 17:11 -25.82250 -57.56029 34999 ft 430 kts 349°
2026-04-29 17:11 -25.76293 -57.56644 35000 ft 430 kts 349°
2026-04-29 17:12 -25.70377 -57.57260 35001 ft 430 kts 349°
2026-04-29 17:12 -25.66387 -57.57674 35001 ft 430 kts 349°
2026-04-29 17:13 -25.58491 -57.58493 34994 ft 420 kts 349°
2026-04-29 17:13 -25.55883 -57.58755 34990 ft 407 kts 348°
2026-04-29 17:13 -25.53095 -57.58893 34979 ft 399 kts 359°
2026-04-29 17:14 -25.47707 -57.57696 34983 ft 392 kts
2026-04-29 17:14 -25.42393 -57.56393 34981 ft 391 kts
2026-04-29 17:15 -25.37089 -57.55099 34975 ft 390 kts
2026-04-29 17:15 -25.31780 -57.53810 34972 ft 390 kts
2026-04-29 17:16 -25.29132 -57.53164 34973 ft 390 kts